TimePST,TemperatureF,Dew PointF,Humidity,Sea Level PressureIn,VisibilityMPH,Wind Direction,Wind SpeedMPH,Gust SpeedMPH,PrecipitationIn,Events,Conditions,WindDirDegrees,DateUTC
12:53 AM,15.1,14.0,95,30.27,9.0,Calm,Calm,-,N/A,,Clear,0,2013-11-29 08:53:00
1:53 AM,15.1,12.9,91,30.28,10.0,Calm,Calm,-,N/A,,Clear,0,2013-11-29 09:53:00
2:53 AM,16.0,14.0,92,30.28,10.0,Calm,Calm,-,N/A,,Clear,0,2013-11-29 10:53:00
3:48 AM,15.8,12.2,86,30.21,9.0,Calm,Calm,-,N/A,,Partly Cloudy,0,2013-11-29 11:48:00
3:53 AM,16.0,15.1,96,30.29,8.0,Calm,Calm,-,N/A,,Partly Cloudy,0,2013-11-29 11:53:00
4:53 AM,12.0,10.0,92,30.35,10.0,Calm,Calm,-,N/A,,Clear,0,2013-11-29 12:53:00
5:53 AM,10.9,9.0,92,30.36,9.0,North,3.5,-,N/A,,Clear,350,2013-11-29 13:53:00
6:07 AM,10.9,9.0,92,30.23,2.5,NNW,5.8,-,N/A,,Scattered Clouds,330,2013-11-29 14:07:00
6:11 AM,12.0,10.0,92,30.23,1.0,Calm,Calm,-,N/A,,Mist,0,2013-11-29 14:11:00
6:21 AM,12.9,10.9,92,30.23,2.5,Calm,Calm,-,N/A,,Scattered Clouds,0,2013-11-29 14:21:00
6:28 AM,12.0,10.0,92,30.23,6.0,Calm,Calm,-,N/A,,Scattered Clouds,0,2013-11-29 14:28:00
6:53 AM,12.9,10.9,92,30.36,8.0,Calm,Calm,-,N/A,,Scattered Clouds,0,2013-11-29 14:53:00
7:00 AM,12.9,10.0,88,30.23,7.0,Calm,Calm,-,N/A,,Mostly Cloudy,0,2013-11-29 15:00:00
7:13 AM,12.9,10.9,92,30.24,2.5,Calm,Calm,-,N/A,,Mostly Cloudy,0,2013-11-29 15:13:00
7:25 AM,14.0,12.0,92,30.25,0.8,Calm,Calm,-,N/A,,Mist,0,2013-11-29 15:25:00
7:34 AM,14.0,12.9,95,30.25,0.2,Calm,Calm,-,N/A,Fog,Light Freezing Fog,0,2013-11-29 15:34:00
7:39 AM,15.1,12.9,91,30.25,1.0,SSW,3.5,-,N/A,,Mist,200,2013-11-29 15:39:00
7:41 AM,16.0,14.0,92,30.25,2.5,Calm,Calm,-,N/A,,Scattered Clouds,0,2013-11-29 15:41:00
7:48 AM,17.6,15.8,93,30.25,6.0,South,3.5,-,N/A,,Partly Cloudy,180,2013-11-29 15:48:00
7:53 AM,18.0,16.0,92,30.38,5.0,SE,3.5,-,N/A,,Partly Cloudy,140,2013-11-29 15:53:00
8:53 AM,25.0,21.9,88,30.37,8.0,NE,3.5,-,N/A,,Clear,40,2013-11-29 16:53:00
9:53 AM,30.9,26.1,82,30.38,10.0,Calm,Calm,-,N/A,,Clear,0,2013-11-29 17:53:00
10:53 AM,37.0,28.0,70,30.36,10.0,Calm,Calm,-,N/A,,Clear,0,2013-11-29 18:53:00
11:53 AM,41.0,28.0,60,30.33,10.0,Calm,Calm,-,N/A,,Clear,0,2013-11-29 19:53:00
12:53 PM,44.1,28.0,53,30.30,10.0,ESE,3.5,-,N/A,,Clear,110,2013-11-29 20:53:00
1:53 PM,46.0,27.0,47,30.29,10.0,WNW,3.5,-,N/A,,Clear,300,2013-11-29 21:53:00
2:53 PM,42.1,28.0,58,30.30,10.0,NNE,4.6,-,N/A,,Clear,20,2013-11-29 22:53:00
3:53 PM,39.0,27.0,62,30.32,10.0,Calm,Calm,-,N/A,,Clear,0,2013-11-29 23:53:00
4:53 PM,34.0,26.1,73,30.34,10.0,Calm,Calm,-,N/A,,Partly Cloudy,0,2013-11-30 00:53:00
5:53 PM,35.1,27.0,72,30.36,10.0,Calm,Calm,-,N/A,,Overcast,0,2013-11-30 01:53:00
6:53 PM,36.0,27.0,70,30.37,10.0,Calm,Calm,-,N/A,,Overcast,0,2013-11-30 02:53:00
7:54 PM,35.1,27.0,72,30.37,10.0,South,5.8,-,N/A,,Unknown,170,2013-11-30 03:54:00
8:53 PM,33.1,26.1,75,30.35,10.0,SE,4.6,-,N/A,,Overcast,130,2013-11-30 04:53:00
9:53 PM,33.1,27.0,78,30.34,10.0,Calm,Calm,-,N/A,,Overcast,0,2013-11-30 05:53:00
10:53 PM,30.0,26.1,85,30.34,10.0,Calm,Calm,-,N/A,,Clear,0,2013-11-30 06:53:00
11:53 PM,25.0,23.0,92,30.35,10.0,Calm,Calm,-,N/A,,Clear,0,2013-11-30 07:53:00